Time,TemperatureF,DewpointF,PressureIn,WindDirection,WindDirectionDegrees,WindSpeedMPH,WindSpeedGustMPH,Humidity,HourlyPrecipIn,Conditions,Clouds,dailyrainin,SoftwareType,DateUTC
2013-03-26 00:00:00,32.7,26.0,29.17,NE,45,0.0,0.0,76,0.00,,,0.00,Rainwise IP-100,2013-03-26 04:00:00,
2013-03-26 00:05:00,32.7,26.0,29.16,NE,45,0.0,0.0,75,0.00,,,0.00,Rainwise IP-100,2013-03-26 04:05:00,
2013-03-26 00:06:00,32.7,26.0,29.16,NE,45,0.0,0.0,75,0.00,,,0.00,Rainwise IP-100,2013-03-26 04:06:00,
2013-03-26 00:11:00,32.6,26.0,29.16,NE,45,0.0,0.0,75,0.00,,,0.00,Rainwise IP-100,2013-03-26 04:11:00,
2013-03-26 00:16:00,32.6,26.0,29.16,NE,45,0.0,0.0,75,0.00,,,0.00,Rainwise IP-100,2013-03-26 04:16:00,
2013-03-26 00:21:00,32.6,26.0,29.17,NE,45,0.0,1.4,76,0.00,,,0.00,Rainwise IP-100,2013-03-26 04:21:00,
2013-03-26 00:26:00,32.5,26.0,29.17,NE,45,0.0,1.6,76,0.00,,,0.00,Rainwise IP-100,2013-03-26 04:26:00,
2013-03-26 00:31:00,32.5,26.0,29.16,NE,45,0.0,1.2,76,0.00,,,0.00,Rainwise IP-100,2013-03-26 04:31:00,
2013-03-26 00:37:00,32.5,28.0,29.17,NE,45,0.0,0.0,77,0.00,,,0.00,Rainwise IP-100,2013-03-26 04:37:00,
2013-03-26 00:41:00,32.5,28.0,29.17,NE,45,0.0,0.0,77,0.00,,,0.00,Rainwise IP-100,2013-03-26 04:41:00,
2013-03-26 00:46:00,32.5,28.0,29.17,NE,45,0.0,0.0,77,0.00,,,0.00,Rainwise IP-100,2013-03-26 04:46:00,
2013-03-26 00:51:00,32.5,28.0,29.16,NE,45,0.0,0.0,77,0.00,,,0.00,Rainwise IP-100,2013-03-26 04:51:00,
2013-03-26 00:57:00,32.3,26.0,29.16,NE,45,0.0,0.0,77,0.00,,,0.00,Rainwise IP-100,2013-03-26 04:57:00,
2013-03-26 01:02:00,32.2,26.0,29.17,NE,45,0.0,0.0,77,0.00,,,0.00,Rainwise IP-100,2013-03-26 05:02:00,
2013-03-26 01:07:00,32.2,26.0,29.16,NE,45,0.0,0.0,78,0.00,,,0.00,Rainwise IP-100,2013-03-26 05:07:00,
2013-03-26 01:12:00,32.2,26.0,29.17,NNE,22,0.0,1.6,78,0.00,,,0.00,Rainwise IP-100,2013-03-26 05:12:00,
2013-03-26 01:17:00,32.3,26.0,29.17,NNE,22,2.6,2.6,78,0.00,,,0.00,Rainwise IP-100,2013-03-26 05:17:00,
2013-03-26 01:22:00,32.4,26.0,29.17,NE,45,3.0,4.9,78,0.00,,,0.00,Rainwise IP-100,2013-03-26 05:22:00,
2013-03-26 01:27:00,32.2,26.0,29.17,NE,45,0.0,4.7,79,0.00,,,0.00,Rainwise IP-100,2013-03-26 05:27:00,
2013-03-26 01:33:00,32.1,26.0,29.17,NE,45,0.0,0.0,79,0.00,,,0.00,Rainwise IP-100,2013-03-26 05:33:00,
2013-03-26 01:38:00,32.2,26.0,29.17,NE,45,0.0,1.2,79,0.00,,,0.00,Rainwise IP-100,2013-03-26 05:38:00,
2013-03-26 01:43:00,32.3,26.0,29.17,NE,45,0.0,0.0,78,0.00,,,0.00,Rainwise IP-100,2013-03-26 05:43:00,
2013-03-26 01:48:00,32.3,26.0,29.17,NE,45,0.0,1.9,78,0.00,,,0.00,Rainwise IP-100,2013-03-26 05:48:00,
2013-03-26 01:53:00,32.3,26.0,29.17,NE,45,0.0,1.2,78,0.00,,,0.00,Rainwise IP-100,2013-03-26 05:53:00,
2013-03-26 01:58:00,32.4,26.0,29.17,NE,45,1.2,2.1,77,0.00,,,0.00,Rainwise IP-100,2013-03-26 05:58:00,
2013-03-26 02:03:00,32.3,26.0,29.17,NE,45,0.0,2.1,78,0.00,,,0.00,Rainwise IP-100,2013-03-26 06:03:00,
2013-03-26 02:08:00,32.1,26.0,29.17,NE,45,0.0,0.0,79,0.00,,,0.00,Rainwise IP-100,2013-03-26 06:08:00,
2013-03-26 02:13:00,32.0,26.0,29.17,NE,45,0.0,2.1,79,0.00,,,0.00,Rainwise IP-100,2013-03-26 06:13:00,
2013-03-26 02:18:00,32.0,26.0,29.17,NE,45,0.0,1.6,80,0.00,,,0.00,Rainwise IP-100,2013-03-26 06:18:00,
2013-03-26 02:23:00,31.9,26.0,29.17,SSW,202,1.4,2.3,80,0.00,,,0.00,Rainwise IP-100,2013-03-26 06:23:00,
2013-03-26 02:28:00,31.9,28.0,29.17,SSW,202,0.0,2.1,81,0.00,,,0.00,Rainwise IP-100,2013-03-26 06:28:00,
2013-03-26 02:33:00,31.9,28.0,29.17,SSW,202,1.2,2.1,81,0.00,,,0.00,Rainwise IP-100,2013-03-26 06:33:00,
2013-03-26 02:38:00,32.0,28.0,29.17,SSW,202,0.0,1.9,81,0.00,,,0.00,Rainwise IP-100,2013-03-26 06:38:00,
2013-03-26 02:43:00,32.0,28.0,29.17,SSW,202,0.0,0.0,81,0.00,,,0.00,Rainwise IP-100,2013-03-26 06:43:00,
2013-03-26 02:49:00,32.0,28.0,29.17,SSW,202,0.0,0.0,81,0.00,,,0.00,Rainwise IP-100,2013-03-26 06:49:00,
2013-03-26 02:54:00,32.0,28.0,29.17,SSW,202,0.0,1.2,81,0.00,,,0.00,Rainwise IP-100,2013-03-26 06:54:00,
2013-03-26 02:59:00,32.0,28.0,29.17,SSW,202,0.0,0.0,81,0.00,,,0.00,Rainwise IP-100,2013-03-26 06:59:00,
2013-03-26 03:04:00,32.0,28.0,29.17,SSW,202,0.0,0.0,81,0.00,,,0.00,Rainwise IP-100,2013-03-26 07:04:00,
2013-03-26 03:09:00,32.0,28.0,29.17,SSW,202,0.0,0.0,81,0.00,,,0.00,Rainwise IP-100,2013-03-26 07:09:00,
2013-03-26 03:14:00,31.9,28.0,29.17,SSW,202,0.0,1.2,82,0.00,,,0.00,Rainwise IP-100,2013-03-26 07:14:00,
2013-03-26 03:19:00,31.9,28.0,29.17,SSW,202,1.4,1.9,82,0.00,,,0.00,Rainwise IP-100,2013-03-26 07:19:00,
2013-03-26 03:24:00,31.9,28.0,29.17,SSW,202,0.0,3.3,82,0.00,,,0.00,Rainwise IP-100,2013-03-26 07:24:00,
2013-03-26 03:29:00,31.9,28.0,29.17,SSW,202,0.0,1.6,82,0.00,,,0.00,Rainwise IP-100,2013-03-26 07:29:00,
2013-03-26 03:34:00,31.9,28.0,29.17,SSW,202,0.0,1.4,83,0.00,,,0.00,Rainwise IP-100,2013-03-26 07:34:00,
2013-03-26 03:39:00,32.0,28.0,29.17,SSW,202,0.0,1.2,83,0.00,,,0.00,Rainwise IP-100,2013-03-26 07:39:00,
2013-03-26 03:44:00,31.9,28.0,29.17,SSW,202,0.0,0.0,83,0.00,,,0.00,Rainwise IP-100,2013-03-26 07:44:00,
2013-03-26 03:49:00,31.9,28.0,29.17,SSW,202,0.0,0.0,83,0.00,,,0.00,Rainwise IP-100,2013-03-26 07:49:00,
2013-03-26 03:54:00,31.9,28.0,29.17,SSW,202,0.0,0.0,83,0.00,,,0.00,Rainwise IP-100,2013-03-26 07:54:00,
2013-03-26 03:59:00,31.8,28.0,29.17,NNW,337,3.0,3.0,83,0.00,,,0.00,Rainwise IP-100,2013-03-26 07:59:00,
2013-03-26 04:05:00,31.7,28.0,29.17,North,360,0.0,3.3,84,0.00,,,0.00,Rainwise IP-100,2013-03-26 08:05:00,
2013-03-26 04:10:00,31.7,28.0,29.17,North,360,0.0,1.2,84,0.00,,,0.00,Rainwise IP-100,2013-03-26 08:10:00,
2013-03-26 04:15:00,31.7,28.0,29.17,North,360,0.0,0.0,84,0.00,,,0.00,Rainwise IP-100,2013-03-26 08:15:00,
2013-03-26 04:20:00,31.7,28.0,29.17,North,360,0.0,0.0,85,0.00,,,0.00,Rainwise IP-100,2013-03-26 08:20:00,
2013-03-26 04:25:00,31.7,28.0,29.17,North,360,0.0,0.0,85,0.00,,,0.00,Rainwise IP-100,2013-03-26 08:25:00,
2013-03-26 04:30:00,31.8,28.0,29.17,North,360,0.0,0.0,85,0.00,,,0.00,Rainwise IP-100,2013-03-26 08:30:00,
2013-03-26 04:35:00,31.9,28.0,29.17,North,360,0.0,0.0,85,0.00,,,0.00,Rainwise IP-100,2013-03-26 08:35:00,
2013-03-26 04:40:00,31.8,28.0,29.18,North,360,0.0,0.0,85,0.00,,,0.00,Rainwise IP-100,2013-03-26 08:40:00,
2013-03-26 04:45:00,31.8,28.0,29.18,North,360,0.0,0.0,86,0.00,,,0.00,Rainwise IP-100,2013-03-26 08:45:00,
2013-03-26 04:50:00,31.7,28.0,29.18,North,360,0.0,0.0,86,0.00,,,0.00,Rainwise IP-100,2013-03-26 08:50:00,
2013-03-26 04:55:00,31.7,28.0,29.18,North,360,0.0,0.0,86,0.00,,,0.00,Rainwise IP-100,2013-03-26 08:55:00,
2013-03-26 05:00:00,31.7,28.0,29.18,North,360,0.0,0.0,86,0.00,,,0.00,Rainwise IP-100,2013-03-26 09:00:00,
2013-03-26 05:05:00,31.6,28.0,29.18,North,360,0.0,0.0,86,0.00,,,0.00,Rainwise IP-100,2013-03-26 09:05:00,
2013-03-26 05:10:00,31.6,28.0,29.18,North,360,1.4,1.6,86,0.00,,,0.00,Rainwise IP-100,2013-03-26 09:10:00,
2013-03-26 05:15:00,31.5,28.0,29.18,North,360,0.0,2.1,86,0.00,,,0.00,Rainwise IP-100,2013-03-26 09:15:00,
2013-03-26 05:21:00,31.5,28.0,29.18,North,360,1.2,1.6,86,0.00,,,0.00,Rainwise IP-100,2013-03-26 09:21:00,
2013-03-26 05:26:00,31.5,28.0,29.19,North,360,0.0,1.4,86,0.00,,,0.00,Rainwise IP-100,2013-03-26 09:26:00,
2013-03-26 05:31:00,31.4,28.0,29.19,North,360,0.0,1.2,87,0.00,,,0.00,Rainwise IP-100,2013-03-26 09:31:00,
2013-03-26 05:36:00,31.3,28.0,29.19,North,360,0.0,0.0,87,0.00,,,0.00,Rainwise IP-100,2013-03-26 09:36:00,
2013-03-26 05:41:00,31.2,28.0,29.19,North,360,0.0,0.0,87,0.00,,,0.00,Rainwise IP-100,2013-03-26 09:41:00,
2013-03-26 05:46:00,31.3,28.0,29.19,North,360,0.0,0.0,87,0.00,,,0.00,Rainwise IP-100,2013-03-26 09:46:00,
2013-03-26 05:51:00,31.4,28.0,29.20,North,360,0.0,1.4,88,0.00,,,0.00,Rainwise IP-100,2013-03-26 09:51:00,
2013-03-26 05:56:00,31.4,28.0,29.20,North,360,0.0,0.0,87,0.00,,,0.00,Rainwise IP-100,2013-03-26 09:56:00,
2013-03-26 06:01:00,31.3,28.0,29.20,North,360,0.0,0.0,87,0.00,,,0.00,Rainwise IP-100,2013-03-26 10:01:00,
2013-03-26 06:06:00,31.2,28.0,29.20,North,360,0.0,1.2,88,0.00,,,0.00,Rainwise IP-100,2013-03-26 10:06:00,
2013-03-26 06:11:00,31.2,28.0,29.20,North,360,0.0,0.0,88,0.00,,,0.00,Rainwise IP-100,2013-03-26 10:11:00,
2013-03-26 06:17:00,31.1,28.0,29.20,North,360,0.0,1.2,88,0.00,,,0.00,Rainwise IP-100,2013-03-26 10:17:00,
2013-03-26 06:22:00,31.1,28.0,29.21,North,360,0.0,0.0,88,0.00,,,0.00,Rainwise IP-100,2013-03-26 10:22:00,
2013-03-26 06:27:00,31.1,28.0,29.21,North,360,1.2,1.2,88,0.00,,,0.00,Rainwise IP-100,2013-03-26 10:27:00,
2013-03-26 06:32:00,31.1,28.0,29.21,North,360,0.0,1.6,89,0.00,,,0.00,Rainwise IP-100,2013-03-26 10:32:00,
2013-03-26 06:37:00,31.1,28.0,29.21,North,360,0.0,1.4,89,0.00,,,0.00,Rainwise IP-100,2013-03-26 10:37:00,
2013-03-26 06:42:00,31.1,28.0,29.22,North,360,1.9,1.9,89,0.00,,,0.00,Rainwise IP-100,2013-03-26 10:42:00,
2013-03-26 06:47:00,31.5,29.0,29.21,South,180,1.9,6.3,88,0.00,,,0.00,Rainwise IP-100,2013-03-26 10:47:00,
2013-03-26 06:52:00,32.0,29.0,29.22,NW,315,0.0,3.3,88,0.00,,,0.00,Rainwise IP-100,2013-03-26 10:52:00,
2013-03-26 06:57:00,32.2,29.0,29.22,NNE,22,0.0,2.6,88,0.00,,,0.00,Rainwise IP-100,2013-03-26 10:57:00,
2013-03-26 07:02:00,32.4,29.0,29.22,North,360,3.3,3.3,87,0.00,,,0.00,Rainwise IP-100,2013-03-26 11:02:00,
2013-03-26 07:07:00,32.6,31.0,29.22,ENE,67,0.0,4.4,87,0.00,,,0.00,Rainwise IP-100,2013-03-26 11:07:00,
2013-03-26 07:12:00,32.9,29.0,29.22,NE,45,2.3,4.4,86,0.00,,,0.00,Rainwise IP-100,2013-03-26 11:12:00,
2013-03-26 07:17:00,33.1,29.0,29.22,NNW,337,4.9,7.0,86,0.00,,,0.00,Rainwise IP-100,2013-03-26 11:17:00,
2013-03-26 07:22:00,33.3,29.0,29.23,North,360,0.0,5.4,85,0.00,,,0.00,Rainwise IP-100,2013-03-26 11:22:00,
2013-03-26 07:27:00,33.6,31.0,29.23,NNW,337,3.7,7.7,84,0.00,,,0.00,Rainwise IP-100,2013-03-26 11:27:00,
2013-03-26 07:33:00,34.1,31.0,29.23,NE,45,3.7,6.5,83,0.00,,,0.00,Rainwise IP-100,2013-03-26 11:33:00,
2013-03-26 07:38:00,34.7,29.0,29.23,NNE,22,4.9,7.0,81,0.00,,,0.00,Rainwise IP-100,2013-03-26 11:38:00,
2013-03-26 07:43:00,35.2,29.0,29.23,NNE,22,4.2,9.1,80,0.00,,,0.00,Rainwise IP-100,2013-03-26 11:43:00,
2013-03-26 07:48:00,35.4,29.0,29.23,NE,45,3.7,9.3,78,0.00,,,0.00,Rainwise IP-100,2013-03-26 11:48:00,
2013-03-26 07:53:00,35.5,29.0,29.23,NNE,22,4.4,8.2,77,0.00,,,0.00,Rainwise IP-100,2013-03-26 11:53:00,
2013-03-26 07:58:00,35.8,29.0,29.23,NNE,22,4.7,10.0,76,0.00,,,0.00,Rainwise IP-100,2013-03-26 11:58:00,
2013-03-26 08:03:00,36.0,29.0,29.24,NNW,337,3.5,7.7,76,0.00,,,0.00,Rainwise IP-100,2013-03-26 12:03:00,
2013-03-26 08:08:00,36.2,29.0,29.23,NNE,22,5.4,9.8,75,0.00,,,0.00,Rainwise IP-100,2013-03-26 12:08:00,
2013-03-26 08:13:00,36.5,29.0,29.24,NNE,22,3.0,10.0,74,0.00,,,0.00,Rainwise IP-100,2013-03-26 12:13:00,
2013-03-26 08:18:00,36.6,29.0,29.24,NNE,22,6.5,10.0,73,0.00,,,0.00,Rainwise IP-100,2013-03-26 12:18:00,
2013-03-26 08:23:00,36.7,29.0,29.24,NNW,337,9.6,11.9,72,0.00,,,0.00,Rainwise IP-100,2013-03-26 12:23:00,
2013-03-26 08:28:00,36.5,29.0,29.25,NNW,337,4.4,11.9,72,0.00,,,0.00,Rainwise IP-100,2013-03-26 12:28:00,
2013-03-26 08:33:00,36.2,28.0,29.25,WNW,292,1.4,9.1,72,0.00,,,0.00,Rainwise IP-100,2013-03-26 12:33:00,
2013-03-26 08:38:00,35.9,28.0,29.25,NNW,337,4.7,5.8,72,0.00,,,0.00,Rainwise IP-100,2013-03-26 12:38:00,
2013-03-26 08:43:00,35.7,28.0,29.25,NNE,22,6.5,8.2,72,0.00,,,0.00,Rainwise IP-100,2013-03-26 12:43:00,
2013-03-26 08:49:00,35.5,28.0,29.25,North,360,4.4,8.2,73,0.00,,,0.00,Rainwise IP-100,2013-03-26 12:49:00,
2013-03-26 08:54:00,35.9,28.0,29.25,NNE,22,1.9,5.4,72,0.00,,,0.00,Rainwise IP-100,2013-03-26 12:54:00,
2013-03-26 08:59:00,36.4,28.0,29.25,NNE,22,5.8,8.4,72,0.00,,,0.00,Rainwise IP-100,2013-03-26 12:59:00,
2013-03-26 09:04:00,36.5,28.0,29.25,SSE,157,0.0,7.0,70,0.00,,,0.00,Rainwise IP-100,2013-03-26 13:04:00,
2013-03-26 09:09:00,36.9,28.0,29.25,West,270,1.9,5.8,70,0.00,,,0.00,Rainwise IP-100,2013-03-26 13:09:00,
2013-03-26 09:14:00,37.2,28.0,29.25,ENE,67,0.0,5.6,70,0.00,,,0.00,Rainwise IP-100,2013-03-26 13:14:00,
2013-03-26 09:19:00,37.7,29.0,29.25,NNE,22,2.6,7.2,70,0.00,,,0.00,Rainwise IP-100,2013-03-26 13:19:00,
2013-03-26 09:24:00,38.5,31.0,29.25,WSW,247,1.9,8.4,69,0.00,,,0.00,Rainwise IP-100,2013-03-26 13:24:00,
2013-03-26 09:29:00,39.2,29.0,29.25,NNE,22,6.5,12.1,67,0.00,,,0.00,Rainwise IP-100,2013-03-26 13:29:00,
2013-03-26 09:34:00,39.5,29.0,29.26,ENE,67,13.1,13.1,62,0.00,,,0.00,Rainwise IP-100,2013-03-26 13:34:00,
2013-03-26 09:39:00,39.4,24.0,29.26,ENE,67,6.3,13.3,56,0.00,,,0.00,Rainwise IP-100,2013-03-26 13:39:00,
2013-03-26 09:44:00,39.6,24.0,29.26,NNE,22,7.2,15.2,53,0.00,,,0.00,Rainwise IP-100,2013-03-26 13:44:00,
2013-03-26 09:49:00,39.4,23.0,29.26,North,360,5.4,18.0,51,0.00,,,0.00,Rainwise IP-100,2013-03-26 13:49:00,
2013-03-26 09:54:00,39.0,23.0,29.25,ENE,67,11.4,14.2,50,0.00,,,0.00,Rainwise IP-100,2013-03-26 13:54:00,
2013-03-26 09:59:00,38.9,23.0,29.26,NNE,22,7.9,18.9,49,0.00,,,0.00,Rainwise IP-100,2013-03-26 13:59:00,
2013-03-26 10:05:00,39.2,21.0,29.25,NNE,22,8.9,18.9,47,0.00,,,0.00,Rainwise IP-100,2013-03-26 14:05:00,
2013-03-26 10:10:00,39.5,23.0,29.26,NE,45,11.0,17.3,47,0.00,,,0.00,Rainwise IP-100,2013-03-26 14:10:00,
2013-03-26 10:15:00,39.5,23.0,29.26,ENE,67,11.0,18.9,46,0.00,,,0.00,Rainwise IP-100,2013-03-26 14:15:00,
2013-03-26 10:20:00,39.7,23.0,29.27,NE,45,5.1,17.0,46,0.00,,,0.00,Rainwise IP-100,2013-03-26 14:20:00,
2013-03-26 10:25:00,39.7,21.0,29.26,NE,45,11.7,17.3,45,0.00,,,0.00,Rainwise IP-100,2013-03-26 14:25:00,
2013-03-26 10:30:00,39.1,21.0,29.26,ENE,67,14.5,18.4,45,0.00,,,0.00,Rainwise IP-100,2013-03-26 14:30:00,
2013-03-26 10:35:00,39.1,21.0,29.26,ENE,67,13.3,19.8,45,0.00,,,0.00,Rainwise IP-100,2013-03-26 14:35:00,
2013-03-26 10:40:00,39.5,21.0,29.26,NE,45,10.5,21.5,45,0.00,,,0.00,Rainwise IP-100,2013-03-26 14:40:00,
2013-03-26 10:45:00,39.5,21.0,29.26,North,360,15.4,18.4,44,0.00,,,0.00,Rainwise IP-100,2013-03-26 14:45:00,
2013-03-26 10:50:00,39.6,21.0,29.25,NNE,22,10.0,20.3,44,0.00,,,0.00,Rainwise IP-100,2013-03-26 14:50:00,
2013-03-26 10:55:00,39.8,21.0,29.26,NNE,22,11.0,21.5,44,0.00,,,0.00,Rainwise IP-100,2013-03-26 14:55:00,
2013-03-26 11:00:00,40.1,21.0,29.27,NNE,22,7.7,21.2,44,0.00,,,0.00,Rainwise IP-100,2013-03-26 15:00:00,
2013-03-26 11:05:00,40.3,21.0,29.27,NNE,22,8.2,13.1,44,0.00,,,0.00,Rainwise IP-100,2013-03-26 15:05:00,
2013-03-26 11:10:00,39.9,21.0,29.27,ENE,67,10.3,16.1,44,0.00,,,0.00,Rainwise IP-100,2013-03-26 15:10:00,
2013-03-26 11:15:00,39.8,21.0,29.27,ENE,67,14.7,16.6,44,0.00,,,0.00,Rainwise IP-100,2013-03-26 15:15:00,
2013-03-26 11:21:00,40.2,21.0,29.27,North,360,14.2,18.0,44,0.00,,,0.00,Rainwise IP-100,2013-03-26 15:21:00,
2013-03-26 11:26:00,40.8,21.0,29.27,ENE,67,14.5,18.9,43,0.00,,,0.00,Rainwise IP-100,2013-03-26 15:26:00,
2013-03-26 11:31:00,41.0,21.0,29.28,ENE,67,8.6,20.3,43,0.00,,,0.00,Rainwise IP-100,2013-03-26 15:31:00,
2013-03-26 11:36:00,40.5,21.0,29.27,ENE,67,4.9,20.1,43,0.00,,,0.00,Rainwise IP-100,2013-03-26 15:36:00,
2013-03-26 11:41:00,40.1,21.0,29.27,NNE,22,4.4,18.0,42,0.00,,,0.00,Rainwise IP-100,2013-03-26 15:41:00,
2013-03-26 11:46:00,40.8,21.0,29.27,ENE,67,1.2,16.1,42,0.00,,,0.00,Rainwise IP-100,2013-03-26 15:46:00,
2013-03-26 11:51:00,41.9,21.0,29.27,NNW,337,14.7,14.7,42,0.00,,,0.00,Rainwise IP-100,2013-03-26 15:51:00,
2013-03-26 11:57:00,41.9,21.0,29.27,North,360,5.4,15.4,40,0.00,,,0.00,Rainwise IP-100,2013-03-26 15:57:00,
2013-03-26 12:02:00,41.3,18.0,29.27,NNE,22,9.6,17.5,40,0.00,,,0.00,Rainwise IP-100,2013-03-26 16:02:00,
2013-03-26 12:07:00,41.1,21.0,29.27,North,360,10.7,18.4,41,0.00,,,0.00,Rainwise IP-100,2013-03-26 16:07:00,
2013-03-26 12:12:00,41.0,21.0,29.28,NNE,22,10.0,16.6,41,0.00,,,0.00,Rainwise IP-100,2013-03-26 16:12:00,
2013-03-26 12:17:00,41.1,21.0,29.27,NNE,22,15.2,15.4,41,0.00,,,0.00,Rainwise IP-100,2013-03-26 16:17:00,
2013-03-26 12:22:00,41.2,21.0,29.27,NNE,22,14.0,18.9,41,0.00,,,0.00,Rainwise IP-100,2013-03-26 16:22:00,
2013-03-26 12:27:00,41.1,21.0,29.27,NE,45,11.0,18.4,41,0.00,,,0.00,Rainwise IP-100,2013-03-26 16:27:00,
2013-03-26 12:32:00,40.9,21.0,29.28,NNE,22,7.2,15.2,41,0.00,,,0.00,Rainwise IP-100,2013-03-26 16:32:00,
2013-03-26 12:37:00,40.9,21.0,29.27,ENE,67,12.1,18.0,41,0.00,,,0.00,Rainwise IP-100,2013-03-26 16:37:00,
2013-03-26 12:42:00,41.3,21.0,29.28,ENE,67,1.4,17.3,41,0.00,,,0.00,Rainwise IP-100,2013-03-26 16:42:00,
2013-03-26 12:47:00,41.7,21.0,29.28,NNE,22,2.6,18.7,41,0.00,,,0.00,Rainwise IP-100,2013-03-26 16:47:00,
2013-03-26 12:52:00,41.8,21.0,29.27,NNE,22,7.9,16.8,41,0.00,,,0.00,Rainwise IP-100,2013-03-26 16:52:00,
2013-03-26 12:57:00,42.1,21.0,29.28,NNW,337,6.5,14.9,41,0.00,,,0.00,Rainwise IP-100,2013-03-26 16:57:00,
2013-03-26 13:02:00,42.2,21.0,29.28,North,360,18.0,18.4,41,0.00,,,0.00,Rainwise IP-100,2013-03-26 17:02:00,
2013-03-26 13:07:00,42.0,21.0,29.28,North,360,17.3,19.4,40,0.00,,,0.00,Rainwise IP-100,2013-03-26 17:07:00,
2013-03-26 13:13:00,42.0,21.0,29.28,NW,315,5.4,19.4,40,0.00,,,0.00,Rainwise IP-100,2013-03-26 17:13:00,
2013-03-26 13:18:00,42.5,21.0,29.28,ENE,67,2.6,14.2,40,0.00,,,0.00,Rainwise IP-100,2013-03-26 17:18:00,
2013-03-26 13:23:00,43.0,21.0,29.28,NNE,22,8.2,15.2,40,0.00,,,0.00,Rainwise IP-100,2013-03-26 17:23:00,
2013-03-26 13:28:00,42.6,21.0,29.28,North,360,12.4,17.5,40,0.00,,,0.00,Rainwise IP-100,2013-03-26 17:28:00,
2013-03-26 13:33:00,42.2,21.0,29.28,NNE,22,0.0,17.3,39,0.00,,,0.00,Rainwise IP-100,2013-03-26 17:33:00,
2013-03-26 13:38:00,42.8,21.0,29.28,North,360,8.6,16.1,39,0.00,,,0.00,Rainwise IP-100,2013-03-26 17:38:00,
2013-03-26 13:43:00,43.0,21.0,29.28,NNE,22,3.5,15.9,38,0.00,,,0.00,Rainwise IP-100,2013-03-26 17:43:00,
2013-03-26 13:48:00,43.0,21.0,29.28,NNW,337,2.8,14.0,38,0.00,,,0.00,Rainwise IP-100,2013-03-26 17:48:00,
2013-03-26 13:53:00,43.0,21.0,29.28,NNW,337,9.1,11.7,38,0.00,,,0.00,Rainwise IP-100,2013-03-26 17:53:00,
2013-03-26 13:58:00,43.5,21.0,29.28,NNE,22,5.1,15.9,38,0.00,,,0.00,Rainwise IP-100,2013-03-26 17:58:00,
2013-03-26 14:03:00,43.5,21.0,29.28,NNW,337,11.9,15.6,38,0.00,,,0.00,Rainwise IP-100,2013-03-26 18:03:00,
2013-03-26 14:08:00,43.3,18.0,29.28,North,360,7.0,14.2,37,0.00,,,0.00,Rainwise IP-100,2013-03-26 18:08:00,
2013-03-26 14:13:00,43.7,21.0,29.28,NE,45,4.0,10.0,37,0.00,,,0.00,Rainwise IP-100,2013-03-26 18:13:00,
2013-03-26 14:18:00,44.0,21.0,29.28,NNW,337,9.3,12.6,37,0.00,,,0.00,Rainwise IP-100,2013-03-26 18:18:00,
2013-03-26 14:23:00,44.5,21.0,29.27,NE,45,6.1,14.9,36,0.00,,,0.00,Rainwise IP-100,2013-03-26 18:23:00,
2013-03-26 14:29:00,44.8,21.0,29.28,WNW,292,5.1,11.2,36,0.00,,,0.00,Rainwise IP-100,2013-03-26 18:29:00,
2013-03-26 14:34:00,45.1,21.0,29.27,ENE,67,4.2,12.4,36,0.00,,,0.00,Rainwise IP-100,2013-03-26 18:34:00,
2013-03-26 14:39:00,45.1,21.0,29.28,North,360,11.2,17.0,36,0.00,,,0.00,Rainwise IP-100,2013-03-26 18:39:00,
2013-03-26 14:44:00,44.5,21.0,29.28,NNW,337,6.5,15.9,36,0.00,,,0.00,Rainwise IP-100,2013-03-26 18:44:00,
2013-03-26 14:49:00,43.4,18.0,29.27,NNW,337,9.1,13.1,36,0.00,,,0.00,Rainwise IP-100,2013-03-26 18:49:00,
2013-03-26 14:54:00,43.4,18.0,29.28,NNE,22,10.0,16.6,36,0.00,,,0.00,Rainwise IP-100,2013-03-26 18:54:00,
2013-03-26 14:59:00,44.1,18.0,29.28,NNE,22,9.8,18.2,35,0.00,,,0.00,Rainwise IP-100,2013-03-26 18:59:00,
2013-03-26 15:04:00,44.5,18.0,29.27,North,360,12.1,12.1,34,0.00,,,0.00,Rainwise IP-100,2013-03-26 19:04:00,
2013-03-26 15:09:00,43.9,18.0,29.28,NNE,22,8.6,18.4,34,0.00,,,0.00,Rainwise IP-100,2013-03-26 19:09:00,
2013-03-26 15:14:00,43.1,18.0,29.28,NNE,22,10.7,13.8,35,0.00,,,0.00,Rainwise IP-100,2013-03-26 19:14:00,
2013-03-26 15:19:00,42.8,18.0,29.27,ENE,67,0.0,13.3,36,0.00,,,0.00,Rainwise IP-100,2013-03-26 19:19:00,
2013-03-26 15:24:00,43.6,18.0,29.27,NNW,337,14.0,19.1,36,0.00,,,0.00,Rainwise IP-100,2013-03-26 19:24:00,
2013-03-26 15:29:00,44.0,18.0,29.28,NNE,22,7.0,16.3,36,0.00,,,0.00,Rainwise IP-100,2013-03-26 19:29:00,
2013-03-26 15:34:00,43.7,18.0,29.28,NNE,22,6.5,11.9,36,0.00,,,0.00,Rainwise IP-100,2013-03-26 19:34:00,
2013-03-26 15:39:00,44.0,18.0,29.27,SW,225,6.8,6.8,36,0.00,,,0.00,Rainwise IP-100,2013-03-26 19:39:00,
2013-03-26 15:45:00,44.8,21.0,29.28,NNE,22,2.6,6.8,35,0.00,,,0.00,Rainwise IP-100,2013-03-26 19:45:00,
2013-03-26 15:50:00,45.4,21.0,29.28,NNE,22,3.7,10.3,35,0.00,,,0.00,Rainwise IP-100,2013-03-26 19:50:00,
2013-03-26 15:55:00,45.6,21.0,29.28,NNW,337,8.4,11.2,34,0.00,,,0.00,Rainwise IP-100,2013-03-26 19:55:00,
2013-03-26 16:00:00,45.5,21.0,29.28,NE,45,6.8,8.2,34,0.00,,,0.00,Rainwise IP-100,2013-03-26 20:00:00,
2013-03-26 16:05:00,45.5,21.0,29.27,NNW,337,11.2,17.3,34,0.00,,,0.00,Rainwise IP-100,2013-03-26 20:05:00,
2013-03-26 16:10:00,44.9,18.0,29.28,NNW,337,14.7,16.6,33,0.00,,,0.00,Rainwise IP-100,2013-03-26 20:10:00,
2013-03-26 16:15:00,44.0,18.0,29.28,NNW,337,1.9,16.1,33,0.00,,,0.00,Rainwise IP-100,2013-03-26 20:15:00,
2013-03-26 16:20:00,44.1,18.0,29.28,NW,315,1.4,10.5,34,0.00,,,0.00,Rainwise IP-100,2013-03-26 20:20:00,
2013-03-26 16:25:00,44.5,21.0,29.28,NNE,22,2.8,6.3,35,0.00,,,0.00,Rainwise IP-100,2013-03-26 20:25:00,
2013-03-26 16:30:00,45.0,21.0,29.28,ESE,112,2.8,8.9,35,0.00,,,0.00,Rainwise IP-100,2013-03-26 20:30:00,
2013-03-26 16:35:00,45.6,21.0,29.27,ENE,67,3.5,5.8,35,0.00,,,0.00,Rainwise IP-100,2013-03-26 20:35:00,
2013-03-26 16:40:00,45.8,21.0,29.28,NE,45,8.6,10.5,35,0.00,,,0.00,Rainwise IP-100,2013-03-26 20:40:00,
2013-03-26 16:45:00,45.5,21.0,29.28,NNE,22,10.5,15.9,34,0.00,,,0.00,Rainwise IP-100,2013-03-26 20:45:00,
2013-03-26 16:50:00,45.1,18.0,29.29,NNE,22,3.7,14.5,34,0.00,,,0.00,Rainwise IP-100,2013-03-26 20:50:00,
2013-03-26 16:55:00,45.1,21.0,29.28,NE,45,3.7,15.9,35,0.00,,,0.00,Rainwise IP-100,2013-03-26 20:55:00,
2013-03-26 17:01:00,45.2,21.0,29.28,NW,315,4.7,10.0,35,0.00,,,0.00,Rainwise IP-100,2013-03-26 21:01:00,
2013-03-26 17:06:00,45.2,21.0,29.29,NW,315,8.6,8.9,35,0.00,,,0.00,Rainwise IP-100,2013-03-26 21:06:00,
2013-03-26 17:11:00,45.1,21.0,29.29,NNE,22,3.3,11.4,35,0.00,,,0.00,Rainwise IP-100,2013-03-26 21:11:00,
2013-03-26 17:16:00,45.0,21.0,29.29,NNW,337,8.2,8.9,36,0.00,,,0.00,Rainwise IP-100,2013-03-26 21:16:00,
2013-03-26 17:21:00,44.8,21.0,29.29,NNE,22,7.2,19.8,36,0.00,,,0.00,Rainwise IP-100,2013-03-26 21:21:00,
2013-03-26 17:26:00,44.3,18.0,29.29,NW,315,9.1,12.1,36,0.00,,,0.00,Rainwise IP-100,2013-03-26 21:26:00,
2013-03-26 17:31:00,43.9,21.0,29.29,North,360,3.3,12.6,37,0.00,,,0.00,Rainwise IP-100,2013-03-26 21:31:00,
2013-03-26 17:37:00,43.8,21.0,29.30,WNW,292,4.9,11.4,38,0.00,,,0.00,Rainwise IP-100,2013-03-26 21:37:00,
2013-03-26 17:42:00,43.9,21.0,29.29,North,360,1.4,14.0,37,0.00,,,0.00,Rainwise IP-100,2013-03-26 21:42:00,
2013-03-26 17:47:00,43.9,21.0,29.30,NE,45,7.0,9.1,37,0.00,,,0.00,Rainwise IP-100,2013-03-26 21:47:00,
2013-03-26 17:52:00,43.6,21.0,29.30,NNE,22,1.6,9.1,38,0.00,,,0.00,Rainwise IP-100,2013-03-26 21:52:00,
2013-03-26 17:57:00,43.2,21.0,29.30,NNW,337,2.6,10.7,38,0.00,,,0.00,Rainwise IP-100,2013-03-26 21:57:00,
2013-03-26 18:02:00,42.9,21.0,29.30,WNW,292,1.9,12.1,39,0.00,,,0.00,Rainwise IP-100,2013-03-26 22:02:00,
2013-03-26 18:07:00,42.8,21.0,29.30,NNE,22,4.9,11.9,39,0.00,,,0.00,Rainwise IP-100,2013-03-26 22:07:00,
2013-03-26 18:12:00,42.7,21.0,29.30,WNW,292,0.0,11.4,39,0.00,,,0.00,Rainwise IP-100,2013-03-26 22:12:00,
2013-03-26 18:17:00,42.6,21.0,29.31,SW,225,0.0,9.1,39,0.00,,,0.00,Rainwise IP-100,2013-03-26 22:17:00,
2013-03-26 18:22:00,42.3,21.0,29.31,South,180,1.2,6.3,39,0.00,,,0.00,Rainwise IP-100,2013-03-26 22:22:00,
2013-03-26 18:27:00,42.0,21.0,29.30,NNE,22,3.5,6.3,40,0.00,,,0.00,Rainwise IP-100,2013-03-26 22:27:00,
2013-03-26 18:32:00,41.8,21.0,29.31,NNE,22,5.1,8.6,41,0.00,,,0.00,Rainwise IP-100,2013-03-26 22:32:00,
2013-03-26 18:37:00,41.6,21.0,29.31,NNE,22,0.0,7.2,42,0.00,,,0.00,Rainwise IP-100,2013-03-26 22:37:00,
2013-03-26 18:42:00,41.3,21.0,29.31,NNW,337,1.4,4.0,42,0.00,,,0.00,Rainwise IP-100,2013-03-26 22:42:00,
2013-03-26 18:47:00,41.0,21.0,29.32,WNW,292,4.4,5.6,43,0.00,,,0.00,Rainwise IP-100,2013-03-26 22:47:00,
2013-03-26 18:53:00,40.9,21.0,29.32,NNE,22,1.6,5.1,43,0.00,,,0.00,Rainwise IP-100,2013-03-26 22:53:00,
2013-03-26 18:58:00,40.8,21.0,29.32,ENE,67,0.0,6.8,44,0.00,,,0.00,Rainwise IP-100,2013-03-26 22:58:00,
2013-03-26 19:03:00,40.5,21.0,29.31,NE,45,0.0,1.9,44,0.00,,,0.00,Rainwise IP-100,2013-03-26 23:03:00,
2013-03-26 19:08:00,40.3,21.0,29.32,NE,45,0.0,5.4,45,0.00,,,0.00,Rainwise IP-100,2013-03-26 23:08:00,
2013-03-26 19:13:00,40.0,23.0,29.32,North,360,1.2,6.1,46,0.00,,,0.00,Rainwise IP-100,2013-03-26 23:13:00,
2013-03-26 19:18:00,39.7,23.0,29.32,NNE,22,2.6,6.5,46,0.00,,,0.00,Rainwise IP-100,2013-03-26 23:18:00,
2013-03-26 19:23:00,39.6,23.0,29.32,ENE,67,0.0,5.6,46,0.00,,,0.00,Rainwise IP-100,2013-03-26 23:23:00,
2013-03-26 19:28:00,39.5,23.0,29.33,North,360,2.3,3.5,47,0.00,,,0.00,Rainwise IP-100,2013-03-26 23:28:00,
2013-03-26 19:33:00,39.3,21.0,29.33,SSE,157,0.0,4.2,47,0.00,,,0.00,Rainwise IP-100,2013-03-26 23:33:00,
2013-03-26 19:38:00,39.2,23.0,29.33,NNW,337,5.6,5.6,48,0.00,,,0.00,Rainwise IP-100,2013-03-26 23:38:00,
2013-03-26 19:43:00,38.9,23.0,29.33,North,360,1.6,7.7,48,0.00,,,0.00,Rainwise IP-100,2013-03-26 23:43:00,
2013-03-26 19:48:00,38.7,23.0,29.33,NNE,22,2.8,7.0,49,0.00,,,0.00,Rainwise IP-100,2013-03-26 23:48:00,
2013-03-26 19:53:00,38.6,23.0,29.33,NNE,22,1.4,7.0,50,0.00,,,0.00,Rainwise IP-100,2013-03-26 23:53:00,
2013-03-26 19:58:00,38.7,23.0,29.33,ENE,67,1.2,5.6,50,0.00,,,0.00,Rainwise IP-100,2013-03-26 23:58:00,
2013-03-26 20:03:00,38.5,23.0,29.34,NNW,337,4.9,8.4,50,0.00,,,0.00,Rainwise IP-100,2013-03-27 00:03:00,
2013-03-26 20:09:00,38.4,23.0,29.34,NNW,337,3.7,8.9,50,0.00,,,0.00,Rainwise IP-100,2013-03-27 00:09:00,
2013-03-26 20:14:00,38.3,23.0,29.34,ENE,67,2.8,9.3,50,0.00,,,0.00,Rainwise IP-100,2013-03-27 00:14:00,
2013-03-26 20:19:00,38.3,23.0,29.34,NNE,22,0.0,4.4,51,0.00,,,0.00,Rainwise IP-100,2013-03-27 00:19:00,
2013-03-26 20:24:00,38.1,23.0,29.34,NNE,22,3.5,8.4,51,0.00,,,0.00,Rainwise IP-100,2013-03-27 00:24:00,
2013-03-26 20:29:00,38.0,23.0,29.34,NW,315,2.8,5.4,52,0.00,,,0.00,Rainwise IP-100,2013-03-27 00:29:00,
2013-03-26 20:34:00,37.8,23.0,29.35,ENE,67,0.0,3.7,52,0.00,,,0.00,Rainwise IP-100,2013-03-27 00:34:00,
2013-03-26 20:39:00,37.7,23.0,29.35,NE,45,1.2,3.3,53,0.00,,,0.00,Rainwise IP-100,2013-03-27 00:39:00,
2013-03-26 20:44:00,37.4,23.0,29.35,NE,45,1.4,3.7,53,0.00,,,0.00,Rainwise IP-100,2013-03-27 00:44:00,
2013-03-26 20:49:00,37.1,23.0,29.35,NNE,22,2.8,7.7,54,0.00,,,0.00,Rainwise IP-100,2013-03-27 00:49:00,
2013-03-26 20:54:00,37.0,23.0,29.35,NNE,22,4.4,6.3,54,0.00,,,0.00,Rainwise IP-100,2013-03-27 00:54:00,
2013-03-26 20:59:00,36.8,23.0,29.35,NNE,22,5.1,6.3,55,0.00,,,0.00,Rainwise IP-100,2013-03-27 00:59:00,
2013-03-26 21:04:00,36.8,23.0,29.35,NNE,22,1.9,5.6,55,0.00,,,0.00,Rainwise IP-100,2013-03-27 01:04:00,
2013-03-26 21:09:00,36.7,23.0,29.36,NNE,22,1.6,5.6,55,0.00,,,0.00,Rainwise IP-100,2013-03-27 01:09:00,
2013-03-26 21:14:00,36.5,23.0,29.35,NE,45,4.0,6.1,55,0.00,,,0.00,Rainwise IP-100,2013-03-27 01:14:00,
2013-03-26 21:19:00,36.3,23.0,29.35,NNE,22,3.5,4.7,56,0.00,,,0.00,Rainwise IP-100,2013-03-27 01:19:00,
2013-03-26 21:25:00,36.0,23.0,29.35,NNE,22,3.7,4.2,56,0.00,,,0.00,Rainwise IP-100,2013-03-27 01:25:00,
2013-03-26 21:30:00,35.6,23.0,29.36,NNW,337,4.2,4.9,57,0.00,,,0.00,Rainwise IP-100,2013-03-27 01:30:00,
2013-03-26 21:35:00,35.3,21.0,29.36,NNW,337,3.0,4.9,57,0.00,,,0.00,Rainwise IP-100,2013-03-27 01:35:00,
2013-03-26 21:40:00,35.0,23.0,29.36,NNW,337,0.0,3.0,58,0.00,,,0.00,Rainwise IP-100,2013-03-27 01:40:00,
2013-03-26 21:45:00,34.7,23.0,29.37,NNW,337,1.4,2.8,58,0.00,,,0.00,Rainwise IP-100,2013-03-27 01:45:00,
2013-03-26 21:50:00,34.7,23.0,29.36,NNW,337,1.9,3.3,59,0.00,,,0.00,Rainwise IP-100,2013-03-27 01:50:00,
2013-03-26 21:55:00,34.5,23.0,29.37,NNW,337,0.0,2.1,59,0.00,,,0.00,Rainwise IP-100,2013-03-27 01:55:00,
2013-03-26 22:00:00,34.1,23.0,29.37,NNW,337,0.0,0.0,60,0.00,,,0.00,Rainwise IP-100,2013-03-27 02:00:00,
2013-03-26 22:05:00,33.4,23.0,29.36,NNW,337,0.0,0.0,63,0.00,,,0.00,Rainwise IP-100,2013-03-27 02:05:00,
2013-03-26 22:10:00,32.6,23.0,29.37,NNW,337,0.0,1.2,65,0.00,,,0.00,Rainwise IP-100,2013-03-27 02:10:00,
2013-03-26 22:15:00,32.0,23.0,29.36,SW,225,1.6,2.8,66,0.00,,,0.00,Rainwise IP-100,2013-03-27 02:15:00,
2013-03-26 22:20:00,31.6,23.0,29.37,SW,225,0.0,2.3,67,0.00,,,0.00,Rainwise IP-100,2013-03-27 02:20:00,
2013-03-26 22:25:00,31.1,23.0,29.36,SW,225,0.0,0.0,68,0.00,,,0.00,Rainwise IP-100,2013-03-27 02:25:00,
2013-03-26 22:30:00,30.8,23.0,29.37,SW,225,1.2,2.1,69,0.00,,,0.00,Rainwise IP-100,2013-03-27 02:30:00,
2013-03-26 22:35:00,30.4,23.0,29.36,SW,225,1.6,2.1,70,0.00,,,0.00,Rainwise IP-100,2013-03-27 02:35:00,
2013-03-26 22:41:00,30.0,23.0,29.36,SSW,202,2.1,2.1,72,0.00,,,0.00,Rainwise IP-100,2013-03-27 02:41:00,
2013-03-26 22:46:00,29.7,24.0,29.36,SSW,202,0.0,2.3,74,0.00,,,0.00,Rainwise IP-100,2013-03-27 02:46:00,
2013-03-26 22:51:00,29.5,24.0,29.36,SSW,202,0.0,1.4,74,0.00,,,0.00,Rainwise IP-100,2013-03-27 02:51:00,
2013-03-26 22:56:00,29.3,23.0,29.36,SSW,202,0.0,0.0,75,0.00,,,0.00,Rainwise IP-100,2013-03-27 02:56:00,
2013-03-26 23:01:00,29.0,23.0,29.36,SSW,202,0.0,0.0,75,0.00,,,0.00,Rainwise IP-100,2013-03-27 03:01:00,
2013-03-26 23:06:00,28.8,23.0,29.36,SSW,202,1.4,1.9,76,0.00,,,0.00,Rainwise IP-100,2013-03-27 03:06:00,
2013-03-26 23:11:00,28.8,23.0,29.36,SSW,202,1.4,2.3,76,0.00,,,0.00,Rainwise IP-100,2013-03-27 03:11:00,
2013-03-26 23:17:00,28.6,23.0,29.36,SSW,202,0.0,1.6,77,0.00,,,0.00,Rainwise IP-100,2013-03-27 03:17:00,
2013-03-26 23:22:00,28.4,23.0,29.36,SSW,202,0.0,0.0,77,0.00,,,0.00,Rainwise IP-100,2013-03-27 03:22:00,
2013-03-26 23:27:00,28.3,23.0,29.37,SSW,202,0.0,1.2,77,0.00,,,0.00,Rainwise IP-100,2013-03-27 03:27:00,
2013-03-26 23:32:00,28.2,23.0,29.36,SSW,202,0.0,1.2,77,0.00,,,0.00,Rainwise IP-100,2013-03-27 03:32:00,
2013-03-26 23:37:00,28.2,23.0,29.37,SSW,202,0.0,2.1,78,0.00,,,0.00,Rainwise IP-100,2013-03-27 03:37:00,
2013-03-26 23:42:00,28.2,23.0,29.36,SSW,202,0.0,0.0,78,0.00,,,0.00,Rainwise IP-100,2013-03-27 03:42:00,
2013-03-26 23:47:00,28.1,23.0,29.36,SSW,202,0.0,2.1,79,0.00,,,0.00,Rainwise IP-100,2013-03-27 03:47:00,
2013-03-26 23:52:00,28.1,23.0,29.36,SSW,202,0.0,1.4,79,0.00,,,0.00,Rainwise IP-100,2013-03-27 03:52:00,
2013-03-26 23:57:00,28.1,23.0,29.36,SSW,202,0.0,0.0,79,0.00,,,0.00,Rainwise IP-100,2013-03-27 03:57:00,